Location: Blue Mountain Vista Observatory
(40.6992°N, 75.9422°W)
Time: 20:12:53
(UTC-04:00)

Daily predictions for brighter satellites

Satellite Brightness Start Highest point End
(mag) Time Altitude Azimuth Time Altitude Azimuth Time Altitude Azimuth
Cosmos 1809 Rocket 4.5 18:41:48 10° S 18:47:52 84° E 18:54:00 10° N
Cosmos-2242 2.9 18:44:22 10° S 18:48:38 76° E 18:52:54 10° N
IRS-1A Rocket 4.4 18:43:08 10° SSE 18:48:59 87° ENE 18:54:56 10° NNW
Cosmos 1624 Rocket 4.1 18:43:54 10° N 18:49:03 57° ENE 18:54:11 10° SSE
Cosmos 1400 Rocket 3.7 18:45:44 10° NNE 18:49:18 29° ENE 18:52:48 10° SE
Cosmos 1371 Rocket 4.0 18:45:59 10° NNW 18:51:23 73° ENE 18:56:43 10° SSE
FALCON 9 R/B 3.3 18:50:50 10° SSW 18:51:29 11° S 18:52:12 10° S
BREEZE-M DEB (TANK) 4.4 18:35:34 10° WSW 18:53:14 72° NNW 18:57:58 10° ENE
SL-16 R/B 2.2 18:49:16 10° NNW 18:54:58 74° ENE 19:00:37 10° SSE
SKYMED 2 3.7 18:50:51 10° NNE 18:55:06 52° E 18:59:20 10° S
Tiangong 1 1.6 18:53:12 10° W 18:55:49 45° SSW 18:58:24 10° SE
ERS-2 2.7 18:53:46 10° S 18:57:25 64° WSW 19:01:06 10° NNW
Meteor 1-28 Rocket 3.5 18:54:03 10° N 18:57:50 73° WNW 19:01:36 10° SSW
Cosmos 1743 Rocket 3.8 18:57:25 10° N 19:01:38 46° E 19:05:51 10° SSE
Cosmos 1766 Rocket 4.0 19:00:05 10° NNW 19:04:31 68° W 19:08:57 10° S
Cosmos 2151 3.5 19:01:09 10° N 19:05:10 38° ENE 19:09:08 10° SSE
Cosmos 1842 Rocket 3.8 19:04:13 10° SSE 19:08:32 49° E 19:12:51 10° NNE
SL-14 R/B 4.1 19:06:02 10° NNW 19:09:47 53° W 19:13:32 10° S
H-2A R/B 4.1 19:08:26 10° ESE 19:11:20 21° ENE 19:14:16 10° NNE
Cosmos 2366 rocket 4.0 19:07:17 10° S 19:13:31 80° E 19:19:43 10° N
Cosmos 2221 3.3 19:16:46 10° SSE 19:20:26 28° E 19:24:10 10° NNE
ISS -1.9 19:20:21 10° WNW 19:23:14 29° SW 19:26:08 10° SSE
Cosmos 1500 Rocket 3.5 19:19:45 10° N 19:24:05 62° E 19:28:21 10° SSE
METEOR-M 4.3 19:18:52 10° S 19:24:13 78° WSW 19:29:36 10° NNW
FREGAT/IRIS 3.6 19:23:45 23° E 19:24:30 26° ENE 19:27:04 10° NNE
SPOT 3 Rocket 3.6 19:20:38 10° SSE 19:25:49 85° WSW 19:31:04 10° NNW
Cosmos 1315 Rocket 3.2 19:26:20 10° N 19:30:14 43° ENE 19:34:08 10° SSE
Cosmos 921 Rocket 3.5 19:27:22 10° N 19:31:36 40° ENE 19:34:56 15° SE
COSMOS 2428 3.6 19:27:01 10° N 19:31:54 28° NE 19:34:16 21° E
Cosmos 2333 Rocket 3.7 19:31:27 10° N 19:35:11 17° NE 19:36:00 17° ENE
NOSS 3 (A) 4.3 19:32:54 10° SSW 19:35:37 68° ESE 19:36:59 28° NE
Cosmos 2056 Rocket 4.2 19:31:15 10° NNW 19:36:28 57° WSW 19:41:34 10° S
DMSP B5D1-3 4.5 19:31:45 10° NNE 19:36:54 85° ESE 19:42:02 10° SSW
Cosmos 1833 4.1 19:32:45 10° SSW 19:38:27 80° ESE 19:44:07 10° NNE
Cosmos 2360 Rocket 2.1 19:33:40 10° NNW 19:39:19 69° ENE 19:44:57 10° SSE
Cosmos 2058 2.9 19:35:44 10° N 19:39:57 86° W 19:44:06 10° S
Cosmos 2098 Rocket 3.7 19:36:50 10° SSE 19:40:32 34° E 19:45:08 10° NNE
NOAA 12 4.2 19:35:33 10° SSE 19:40:50 83° WSW 19:46:11 10° NNW
FengYun 1-2 T 4.3 19:36:01 10° SSE 19:41:20 53° ENE 19:46:40 10° N
Meteor 2-1 Rocket 4.2 19:35:47 10° S 19:41:32 85° E 19:47:26 10° N
COSMO-SKYMED 1 3.8 19:39:00 10° N 19:43:09 44° WNW 19:47:16 10° SW
Cosmos 2219 3.9 19:38:47 10° SSE 19:43:39 30° ESE 19:45:35 24° ENE
RESURS DK-1 2.3 19:40:47 10° NNW 19:44:53 60° ENE 19:47:05 25° SE
Cosmos 2322 Rocket 3.4 19:40:00 10° NW 19:45:16 43° WSW 19:50:31 10° S
Cosmos 1626 3.2 19:43:04 10° NNW 19:46:41 47° W 19:50:16 10° SSW
SL-24 R/B - RUBIN 2 3.7 19:42:59 10° NNW 19:47:52 60° NE 19:49:57 30° ESE
Cosmos 1821 Rocket 4.1 19:45:19 10° SSE 19:51:12 51° E 19:57:11 10° NNE
BREEZE-M DEB (TANK) 1.5 19:50:41 10° WSW 19:52:36 57° NW 19:52:36 57° NW
Cosmos 1000 Rocket 4.5 19:47:08 10° N 19:53:18 60° E 19:59:23 10° SSE
SL-8 R/B 3.6 19:49:31 10° SW 19:54:21 84° SSE 19:56:27 34° ENE
Lacrosse 5 rocket 4.0 19:52:08 10° NW 19:54:25 14° NNW 19:56:39 10° N
USA 267 3.3 19:49:38 19° ENE 19:54:28 59° SE 20:00:53 10° SSW
Cosmos 1452 Rocket 3.4 19:49:12 10° NNW 19:54:29 82° ENE 19:59:44 10° SSE
SJ-6B 2.7 19:55:11 48° ESE 19:55:41 52° ENE 19:59:20 10° N
Sich 1 4.4 19:55:54 10° NNE 19:58:06 23° NE 19:58:06 23° NE
Cosmos 2239 Rocket 4.4 19:54:13 10° S 20:00:13 61° E 20:06:16 10° NNE
Cosmos 1934 Rocket 4.2 19:54:39 10° SSE 20:00:39 46° E 20:06:41 10° NNE
Cosmos 1805 Rocket 3.6 19:57:54 10° N 20:02:10 51° E 20:02:32 49° E
Atlas Centaur 2 3.4 19:57:47 10° WSW 20:02:18 29° S 20:04:35 23° SE
DELTA 2 R/B (1) 3.6 19:58:20 10° W 20:03:56 77° S 20:05:56 41° ESE
Cosmos 2322 3.6 19:58:59 10° NNW 20:04:45 88° ENE 20:09:19 17° SSE
Gbstr 26 Del rocket 4.4 20:04:13 10° NW 20:09:05 39° NNE 20:10:30 34° NE
ALOS 3.5 20:05:01 10° S 20:09:27 43° W 20:13:55 10° NNW
Spot 2 Rocket 4.4 20:11:22 31° NE 20:11:22 31° NE 20:14:50 10° N
BREEZE M DEB (TANK) 3.5 20:07:34 10° NW 20:10:26 24° N 20:10:26 24° N
CZ-4C R/B 2.4 20:07:53 10° S 20:12:18 43° SE 20:12:18 43° SE
Abrixas rocket 4.2 20:16:15 10° WNW 20:18:42 23° NNW 20:18:42 23° NNW
Cosmos 2123 Rocket 4.0 20:13:21 10° N 20:19:27 54° E 20:20:47 46° ESE
USA 234 3.9 20:28:01 34° NE 20:29:14 37° NNE 20:35:08 10° NW
Cosmos 2219 Rocket 2.6 20:24:34 10° NNW 20:29:16 46° NE 20:29:16 46° NE
Cosmos 1048 Rocket 4.0 20:30:24 10° SSW 20:35:32 75° WNW 20:38:42 24° NNE
Cosmos 2333 4.1 20:34:29 10° NNW 20:40:15 90° ESE 20:40:47 75° SSE
Envisat 3.7 20:46:16 45° N 20:46:16 45° N 20:49:47 10° N
Resurs 01 Rocket 3.2 20:49:59 28° NNW 20:49:59 28° NNW 20:52:08 10° NNW
Cosmos 2237 Rocket 3.5 20:52:41 10° NNW 20:55:41 29° N 20:55:41 29° N
SL-16 R/B 4.4 21:01:36 10° N 21:02:43 14° N 21:02:43 14° N
COSMOS 2428 3.6 21:10:57 10° NW 21:16:17 43° WSW 21:16:20 43° WSW
Cosmos 2333 Rocket 3.2 21:14:22 10° NNW 21:18:02 41° NNW 21:18:02 41° NNW
Cosmos 2219 4.4 21:22:15 10° SW 21:27:37 40° WNW 21:27:40 40° WNW
USA 267 4.0 21:37:01 45° NNW 21:37:20 45° NNW 21:43:28 10° W
